Weather in Naperville

United States     41°46′40″N   88°09′13″W
В апреле 2022 года жителям России запретили посещать сайт meteo.paraplan.net по решению Генеральной прокуратуры. Аудитория сайта уменьшилась в 10 раз. Владельцы сайта не видят смысла в поддержке погодного сервера в таких условиях. Сайт будет закрыт в октябре.
temp.,
°C
wind,
m/s
gust,
m/s
humid.,
%
clouds,
%
prec.,
mm/h
press.,
hPa
HPBL,
m
4 october, tue
tue401:00+9sse12594 0.0 102510
04:00+8sw11585 0.0 102510
07:00+7w11565 0.0 102510
10:00+15s11395 0.0 1025271
13:00+21s11285 0.0 1023753
16:00+22s11235 0.0 1020972
19:00+16e22335 0.0 102111
22:00+14sse11355 0.0 102110
5 october, wed
wed501:00+12s2237100 0.0 102110
04:00+11ssw2237100 0.0 102014
07:00+10s2240100 0.0 102015
10:00+16ssw343382 0.0 1020274
13:00+23sw4520100 0.0 10181058
16:00+24ssw352083 0.0 10161496
19:00+20sse3322100 0.0 101644
22:00+15s4637100 0.1 101691
6 october, thu
thu601:00+13sw476899 0.3 1015101
04:00+14ssw376159 0.1 1014150
07:00+11w3471100 0.1 101549
10:00+17wnw465173 0.0 1015390
13:00+22nw6853100 0.0 10151191
16:00+22nnw574686 0.0 10151623
19:00+12nne71287100 2.7 1020650
22:00+10n712805 0.0 1023733
7 october, fri
fri701:00+6n6128212 0.0 1025410
04:00+5n5118054 0.0 1026394
07:00+6n5127411 0.0 1028489
10:00+9n78535 0.0 1029871
13:00+11n55445 0.0 10281463
16:00+12nnw55425 0.0 10271629
19:00+7n34585 0.0 102853
22:00+5nne11590 0.0 102910
8 october, sat
sat801:00+4w12610 0.0 102810
04:00+3wsw34680 0.0 102847
07:00+2wsw35700 0.0 102874
10:00+10wsw58410 0.0 1027556
13:00+15w67290 0.0 10251407
16:00+16w68265 0.0 10221537
19:00+10sw45355 0.0 102155
22:00+9sw49405 0.0 1021123